User: anonymous   Login
Location: Unspecified
(0.0000°N, 0.0000°E)
Time: 00:49:30
(UTC+00:00)
Language:

STARLINK-5622 - Orbit

View from above orbital plane
View from above orbital plane
View from above satellite
View from above satellite

Ground track
Ground track

The orbit is defined by the following mean orbital elements,

1 55358U          26145.50850691 +.00000000 +00000-0 +11990-4 0 00005
2 55358  43.0040 229.4187 0001394 265.7907  94.2785 15.27571986    01
Epoch (UTC): 25 May 2026 12:12:14
Eccentricity: 0.0001394
inclination: 43.0040°
perigee height: 482 km
apogee height: 484 km
right ascension of ascending node: 229.4187°
argument of perigee: 265.7907°
revolutions per day: 15.27571986
mean anomaly at epoch: 94.2785°

The dashed part of the orbit path shows where the satellite is in the earth's shadow,  

DLR